This demonstration page uses our WeatherBlox Daily Observations layout. Learn more.

Left ArrowRight Arrow

Hourly Observations for May 18, 2020

Temp ( °F °C ) Dew Point ( °F °C ) Humidity (%) Winds ( mph kmh ) Pressure ( in mb ) Visibility ( mi km ) Precip ( " mm )
12:08 am 00:08 Mostly Cloudy 55 12.8 47 8.3 74 74 N 18 30 29.98 1015 10 16.0934 0 0
12:54 am 00:54 Cloudy 55 12.8 47 8.3 74 74 N 15 24 29.97 1015 10 16.0934 0 0
1:54 am 01:54 Cloudy 55 12.8 46 7.8 72 72 N 20 31 29.96 1015 10 16.0934 0 0
2:54 am 02:54 Cloudy 54 12.2 46 7.8 75 75 N 20 31 29.96 1014 10 16.0934 0 0
3:04 am 03:04 Cloudy 54 12.2 46 7.8 75 75 N 18 30 29.97 1015 10 16.0934 0 0
3:17 am 03:17 Cloudy 54 12.2 46 7.8 75 75 N 14 22 29.97 1015 10 16.0934 0 0
3:54 am 03:54 Cloudy 54 12.2 46 7.8 75 75 NNW 15 24 29.96 1015 10 16.0934 0 0
4:54 am 04:54 Cloudy 54 12.2 47 8.3 77 77 NNW 14 22 29.97 1015 10 16.0934 0 0
5:54 am 05:54 Cloudy 54 12.2 46 7.8 75 75 N 14 22 29.98 1015 10 16.0934 0 0
6:54 am 06:54 Cloudy 54 12.2 46 7.8 75 75 N 15 24 29.99 1016 10 16.0934 0 0
7:54 am 07:54 Cloudy 55 12.8 46 7.8 72 72 N 16 26 30.01 1016 10 16.0934 0 0
8:54 am 08:54 Cloudy 55 12.8 45 7.2 69 69 N 20 31 30.02 1017 10 16.0934 0 0
9:54 am 09:54 Cloudy 56 13.3 45 7.2 67 67 N 17 28 30.02 1017 10 16.0934 0 0
10:54 am 10:54 Cloudy 58 14.4 45 7.2 62 62 N 16 26 30.01 1016 10 16.0934 0 0
11:51 am 11:51 Cloudy 61 16 46 8 59 59 N 15 24 30 1016 10 16.0934 0 0
11:54 am 11:54 Cloudy 61 16.1 47 8.3 60 60 N 14 22 30.01 1016 10 16.0934 0 0
12:54 pm 12:54 Cloudy 63 17.2 47 8.3 56 56 N 16 26 29.99 1016 10 16.0934 0 0
1:54 pm 13:54 Partly Cloudy 67 19.4 48 8.9 51 51 N 17 28 29.97 1015 10 16.0934 0 0
2:54 pm 14:54 Mostly Sunny 68 20 48 8.9 49 49 N 14 22 29.96 1015 10 16.0934 0 0
3:54 pm 15:54 Partly Cloudy 68 20 48 8.9 49 49 NNE 18 30 29.96 1015 10 16.0934 0 0
4:54 pm 16:54 Sunny 65 18.3 48 8.9 54 54 NNE 17 28 29.96 1015 10 16.0934 0 0
5:54 pm 17:54 Sunny 63 17.2 47 8.3 56 56 NE 18 30 29.95 1014 10 16.0934 0 0
6:54 pm 18:54 Mostly Cloudy 63 17.2 47 8.3 56 56 NE 18 30 29.96 1014 10 16.0934 0 0
7:54 pm 19:54 Cloudy 59 15 47 8.3 64 64 NNE 15 24 29.97 1015 10 16.0934 0 0
8:01 pm 20:01 Cloudy 59 15 47 8.3 64 64 NNE 13 20 29.97 1015 10 16.0934 0 0
8:31 pm 20:31 Cloudy 59 15 47 8.3 64 64 NNE 13 20 29.98 1015 10 16.0934 0 0
8:41 pm 20:41 Cloudy 59 15 47 8.3 64 64 NE 12 19 29.98 1015 10 16.0934 0 0
8:54 pm 20:54 Cloudy 58 14.4 48 8.9 70 70 NE 8 13 29.98 1015 10 16.0934 0 0
9:54 pm 21:54 Cloudy 58 14.4 48 8.9 70 70 NE 8 13 30 1016 10 16.0934 0 0
10:54 pm 22:54 Cloudy 57 13.9 48 8.9 72 72 NNE 6 9 30.01 1016 10 16.0934 0 0
11:23 pm 23:23 Cloudy 57 13.9 49 9.4 74 74 NNE 6 9 30.01 1016 10 16.0934 0 0
11:54 pm 23:54 Cloudy 57 13.9 49 9.4 74 74 NNE 6 9 30 1016 10 16.0934 0 0

Powered by AerisWeather